GW6128 Weather Reports


Display with metric or nautical units.
time (UTC)temp
F
wind
direction
speed
MPH
gust
MPH
rain 1hr
in
rain 24hr
in
rain mn
in
humidity
%
barometer
mb
20260510101555 54 43 6.0 12.0 0.00 0.00 0.00 72 1015.8
20260510094603 55 102 5.0 11.0 0.00 0.00 0.00 72 1015.7
20260510093050 55 49 6.0 16.0 0.00 0.00 0.00 70 1015.7
20260510091550 54 55 7.0 13.0 0.00 0.00 0.00 71 1015.7
20260510090056 54 56 5.0 14.0 0.00 0.00 0.00 73 1015.8
20260510084553 54 81 7.0 15.0 0.00 0.00 0.00 73 1016.0
20260510083048 53 52 6.0 14.0 0.00 0.00 0.00 75 1016.1
20260510081547 53 72 8.0 13.0 0.00 0.00 0.00 76 1016.2
20260510080054 53 50 6.0 16.0 0.00 0.00 0.00 77 1016.1
20260510074549 52 337 7.0 15.0 0.00 0.00 0.00 78 1016.2
20260510073048 52 47 5.0 11.0 0.00 0.00 0.00 81 1016.2
20260510071545 51 83 5.0 13.0 0.00 0.00 0.00 81 1016.2
20260510070105 51 49 4.0 13.0 0.00 0.00 0.00 82 1016.2
20260510064555 50 89 6.0 10.0 0.00 0.00 0.00 83 1016.3
20260510063059 50 53 5.0 11.0 0.00 0.00 0.00 84 1016.2
20260510061555 50 31 5.0 12.0 0.00 0.00 0.00 86 1016.1
20260510060116 49 60 5.0 11.0 0.00 0.00 0.00 87 1015.9
20260510054554 49 49 4.0 9.0 0.00 0.00 0.00 88 1015.8
20260510053052 49 68 4.0 14.0 0.00 0.00 0.00 88 1015.8
20260510051551 48 79 3.0 10.0 0.00 0.00 0.00 89 1015.8
20260510050054 48 56 3.0 11.0 0.00 0.00 0.00 89 1015.7
20260510044603 48 64 3.0 11.0 0.00 0.00 0.00 89 1015.7
20260510043054 48 84 4.0 8.0 0.00 0.00 0.00 90 1015.8
20260510041557 48 13 4.0 10.0 0.00 0.00 0.00 90 1015.9
20260510040053 48 63 3.0 10.0 0.00 0.00 0.00 90 1015.8
20260510034550 49 62 3.0 8.0 0.00 0.00 0.00 90 1015.9
20260510033118 49 71 3.0 8.0 0.00 0.00 0.00 90 1016.2
20260510031614 49 58 3.0 10.0 0.00 0.00 0.00 90 1016.2
20260510030052 49 122 3.0 8.0 0.00 0.00 0.00 90 1016.1
20260510024659 48 71 3.0 8.0 0.00 0.00 0.00 90 1016.1
20260510023057 48 61 3.0 9.0 0.00 0.00 0.00 90 1015.9
20260510021552 48 68 2.0 7.0 0.00 0.00 0.00 89 1016.1
20260510020048 49 61 2.0 6.0 0.00 0.00 0.00 88 1016.3
20260510014607 49 62 3.0 6.0 0.00 0.00 0.00 88 1016.4
20260510013056 49 86 2.0 6.0 0.00 0.00 0.00 88 1016.4
20260510011557 49 13 2.0 7.0 0.00 0.00 0.00 87 1016.2
20260510004558 49 56 3.0 7.0 0.00 0.00 0.00 84 1016.0
20260510003101 50 59 3.0 7.0 0.00 0.00 0.00 82 1016.2
20260510001551 50 53 1.0 7.0 0.00 0.00 0.00 81 1016.3
20260510000056 50 75 2.0 5.0 0.00 0.00 0.00 82 1016.4
20260509234605 50 82 2.0 6.0 0.00 0.00 0.00 83 1016.4
20260509233047 51 77 2.0 5.0 0.00 0.00 0.00 82 1016.5
20260509231548 51 56 2.0 6.0 0.00 0.00 0.00 81 1016.6
20260509230055 51 54 3.0 7.0 0.00 0.00 0.00 79 1016.6
20260509224549 51 58 3.0 6.0 0.00 0.00 0.00 79 1016.6
20260509223058 52 65 3.0 7.0 0.00 0.00 0.00 77 1016.5
20260509221553 52 78 0.0 2.0 0.00 0.00 0.00 75 1016.7
20260509214551 53 87 2.0 5.0 0.00 0.00 0.00 71 1016.5
20260509213055 53 65 3.0 7.0 0.00 0.00 0.00 69 1016.4
20260509211554 54 47 3.0 7.0 0.00 0.00 0.00 67 1016.4
20260509210056 54 54 2.0 6.0 0.00 0.00 0.00 67 1016.1
20260509204559 55 77 1.0 5.0 0.00 0.00 0.00 65 1016.1
20260509203058 55 0 1.0 7.0 0.00 0.00 0.00 64 1016.1
20260509201548 56 54 3.0 7.0 0.00 0.00 0.00 62 1016.0
20260509200054 56 97 2.0 7.0 0.00 0.00 0.00 60 1015.9
20260509194556 57 51 2.0 5.0 0.00 0.00 0.00 58 1015.9
20260509193047 57 40 2.0 5.0 0.00 0.00 0.00 57 1015.8
20260509191549 57 70 2.0 9.0 0.00 0.00 0.00 54 1015.8
20260509190052 58 108 3.0 7.0 0.00 0.00 0.00 52 1015.7
20260509184552 59 113 4.0 8.0 0.00 0.00 0.00 49 1015.6
20260509183053 59 63 3.0 8.0 0.00 0.00 0.00 48 1015.7
20260509181602 60 67 4.0 9.0 0.00 0.00 0.00 46 1015.6
20260509180058 61 85 5.0 12.0 0.00 0.00 0.00 46 1015.5
20260509174554 62 53 4.0 10.0 0.00 0.00 0.00 45 1015.4
20260509173058 62 82 5.0 14.0 0.00 0.00 0.00 43 1015.5
20260509171555 62 75 6.0 13.0 0.00 0.00 0.00 45 1015.5
20260509170054 63 68 5.0 12.0 0.00 0.00 0.00 47 1015.6
20260509164551 63 57 7.0 16.0 0.00 0.00 0.00 46 1015.6
20260509163100 64 115 6.0 13.0 0.00 0.00 0.00 46 1015.6
20260509161552 64 163 4.0 10.0 0.00 0.00 0.00 52 1015.8
20260509160049 64 62 5.0 12.0 0.00 0.00 0.00 51 1015.7
20260509154600 64 65 6.0 13.0 0.00 0.00 0.00 51 1015.9
20260509153050 64 99 5.0 14.0 0.00 0.00 0.00 51 1015.9
20260509151555 64 148 6.0 14.0 0.00 0.00 0.00 54 1015.9
20260509150050 65 137 6.0 13.0 0.00 0.00 0.00 53 1015.7
20260509144606 65 138 6.0 16.0 0.00 0.00 0.00 53 1015.5
20260509143053 66 40 6.0 13.0 0.00 0.00 0.00 53 1015.2
20260509141553 66 115 5.0 13.0 0.00 0.00 0.00 54 1015.4
20260509140105 66 82 6.0 14.0 0.00 0.00 0.00 57 1015.5
20260509134552 66 109 5.0 13.0 0.00 0.00 0.00 54 1015.5
20260509133105 66 347 6.0 14.0 0.00 0.00 0.00 53 1015.6
20260509131559 66 88 5.0 12.0 0.00 0.00 0.00 54 1015.6
20260509130059 66 56 6.0 13.0 0.00 0.00 0.00 56 1015.8
20260509124603 65 42 5.0 13.0 0.00 0.00 0.00 55 1016.0
20260509123052 65 39 5.0 13.0 0.00 0.00 0.00 55 1016.1
20260509121557 66 60 4.0 10.0 0.00 0.00 0.00 54 1016.2
20260509120054 66 105 5.0 11.0 0.00 0.00 0.00 53 1016.2
20260509114553 66 54 5.0 13.0 0.00 0.00 0.00 54 1016.4
20260509113056 66 96 4.0 10.0 0.00 0.00 0.00 53 1016.4
20260509111556 66 134 5.0 10.0 0.00 0.00 0.00 53 1016.5
20260509110050 65 108 5.0 11.0 0.00 0.00 0.00 54 1016.7
20260509104549 65 218 5.0 10.0 0.00 0.00 0.00 54 1016.9
20260509103051 65 127 3.0 12.0 0.00 0.00 0.00 54 1017.0